WESTFORD NEEDLES, 5702

Orbit data source: Space-Track

WESTFORD NEEDLES, 5702 is space debris in LEO originally from a launch on Thu, 09 May 1963 UTC launched from the Air Force Western Test Range (AFWTR). Debris objects in space refer to the collection of defunct objects orbiting the Earth. Examples of debris include non-operational satellites, rocket bodies, and fragments generated from explosions, collisions, or faulty payload assembly.

Loading next visibility...
Identifier
5702, 1963-014CU
Orbit
LEO
Country
Flag of USUS
Related business
Manufacturer
Unknown
Mission
Spacecraft
Bus & Motor
Unknown
Mass
Unknown
Launch date (UTC)
1963-05-09 (63 years ago)
Launch vehicle
Unknown
Launch site
Air Force Western Test Range (AFWTR)
Object type
Payload
Rocket body
Debris
Shape & HBR
Unknown shape, 0.1 m
Radar Cross Section
Medium (>0.1 m² and <1 m²)

Expand to show TLE details & history
Last TLE update: 1 day ago

TLE from 1 day ago
0 WESTFORD NEEDLES
1 05702U 63014CU  26174.12805750  .00005926  00000-0  37921+0 0  9999
2 05702  86.1223  62.6319 1915146 149.4604 223.3389  8.75937246427453
Epoch: 2026-06-23T03:04Z
TLE epoch observation values (Epoch: 2026-06-23T03:04:24.167Z)
Latitude
-0°
Longitude
105.22713°
Altitude
5,090.265 km
Speed
5.425 km/s
True Right ascension
04h 10m 31s
True Declination
0° 00' 00"
Sunlit
Object was in daylight at epoch
Visualization orbit readout
Latitude
Unknown
Longitude
Unknown
Altitude
Unknown
Speed
Unknown
Apparent Right ascension
Unknown
Apparent Declination
Unknown
Sunlit
N/A
Visualization observer readout
Local Sidereal Time
22:57:10
Azimuth
Unknown
Elevation
Unknown
Doppler factor
Unknown
Orbital elements
Apogee altitude
5,463.685 km
Perigee altitude
1,656.964 km
Semi-major axis
9,938.462 km
Eccentricity
0.19151
Inclination
86.1223°
RAAN
62.6319°
Arg. of periapsis
149.4604°
True anomaly
210.6228°
Mean anomaly
223.3389°
Eccentric anomaly
216.77037°
Mean motion
2.19061 °/min
Orbital period
164.34 mins
BSTAR
0.37921
Loading maneuver chart data...
Computing Atmospheric mass density...

Documentation

Showing up to 5 results
|